Weather History for Owensboro, KY

Change the Weather History Date:

Monday, April 15, 2013

  Actual Average Record
Temperature  
Mean Temperature 65 °F -  
Max Temperature 75 °F 68 °F 89 °F (1977)
Min Temperature 55 °F 45 °F 28 °F (1943)
Growing Degree Days 15 (Base 50)    
Moisture  
Dew Point 56 °F    
Average Humidity 72    
Maximum Humidity 87    
Minimum Humidity 56    
Precipitation  
Precipitation 0.00 in - - ()
Sea Level Pressure  
Sea Level Pressure 29.92 in    
Wind  
Wind Speed 11 mph (SSE)    
Max Wind Speed 16 mph    
Max Gust Speed 20 mph    
Visibility 10 miles    
Events      
Averages and records for this station are not official NWS values.
T = Trace of Precipitation, MM = Missing Value Source: NWS Daily Summary

Daily Weather History Graph

Daily Weather History Graph

Search for Another Location

Airport:

Trip Planner

Search our weather history database for the weather conditions in past years. The results will help you decide how hot, cold, wet, or windy it might be!

Date:

Astronomy

Apr. 15, 2013 Rise Set
Actual Time 6:13 AM CDT 7:24 PM CDT
Civil Twilight 5:46 AM CDT 7:51 PM CDT
Nautical Twilight 5:13 AM CDT 8:24 PM CDT
Astronomical Twilight 4:40 AM CDT 8:57 PM CDT
Moon 9:42 AM CDT (4/15) No Moon Set
Length of Visible Light 14h 05m
Length of Day
13h 11m
Waxing Crescent, 25% of the Moon is Illuminated
Apr 15
Waxing Crescent
Apr 18
First Quarter
Apr 25
Full
May 2
Last Quarter
May 9
New

Hourly Weather History & Observations

Time (CDT) Temp. Dew Point Humidity Pressure Visibility Wind Dir Wind Speed Gust Speed Precip Events Conditions
12:56 AM 57.9 °F 50.9 °F 77% 29.88 in 10.0 mi SSE 11.5 mph - N/A   Partly Cloudy
1:56 AM 59.0 °F 52.0 °F 78% 29.90 in 10.0 mi South 10.4 mph - N/A   Overcast
2:56 AM 59.0 °F 52.9 °F 80% 29.90 in 10.0 mi SSE 11.5 mph - N/A   Overcast
3:56 AM 59.0 °F 52.9 °F 80% 29.91 in 10.0 mi SSE 10.4 mph - N/A   Overcast
4:56 AM 57.9 °F 52.9 °F 83% 29.88 in 10.0 mi SSE 12.7 mph - N/A   Mostly Cloudy
5:56 AM 55.9 °F 52.0 °F 87% 29.91 in 10.0 mi SSE 8.1 mph - N/A   Clear
6:56 AM 55.9 °F 52.0 °F 87% 29.94 in 10.0 mi SSE 6.9 mph - N/A   Clear
7:56 AM 59.0 °F 54.0 °F 83% 29.95 in 10.0 mi SSE 9.2 mph - N/A   Mostly Cloudy
8:56 AM 63.0 °F 55.9 °F 78% 29.95 in 10.0 mi South 13.8 mph - N/A   Mostly Cloudy
9:56 AM 63.9 °F 55.9 °F 75% 29.96 in 10.0 mi South 12.7 mph - N/A   Overcast
10:56 AM 64.9 °F 56.8 °F 75% 29.98 in 10.0 mi South 10.4 mph - N/A   Mostly Cloudy
11:56 AM 68.9 °F 57.9 °F 68% 29.98 in 10.0 mi South 6.9 mph - N/A   Mostly Cloudy
12:56 PM 70.9 °F 59.0 °F 66% 29.96 in 10.0 mi South 10.4 mph - N/A   Mostly Cloudy
1:56 PM 72.9 °F 59.9 °F 64% 29.94 in 10.0 mi SSE 11.5 mph - N/A   Overcast
2:56 PM 74.8 °F 59.9 °F 60% 29.91 in 10.0 mi South 16.1 mph - N/A   Mostly Cloudy
3:56 PM 74.8 °F 59.9 °F 60% 29.89 in 10.0 mi SSE 12.7 mph 19.6 mph N/A   Mostly Cloudy
4:56 PM 74.8 °F 59.9 °F 60% 29.89 in 10.0 mi South 11.5 mph - N/A   Mostly Cloudy
5:56 PM 75.9 °F 59.0 °F 56% 29.89 in 10.0 mi South 11.5 mph - N/A   Clear
6:56 PM 73.9 °F 59.0 °F 59% 29.89 in 10.0 mi SSE 9.2 mph - N/A   Clear
7:56 PM 70.9 °F 57.9 °F 63% 29.88 in 10.0 mi SSE 10.4 mph - N/A   Clear
8:56 PM 70.0 °F 57.9 °F 65% 29.90 in 10.0 mi SSE 10.4 mph - N/A   Clear
9:56 PM 68.9 °F 56.8 °F 65% 29.91 in 10.0 mi SSE 12.7 mph - N/A   Clear
10:56 PM 68.0 °F 57.9 °F 70% 29.91 in 10.0 mi SSE 11.5 mph - N/A   Clear
11:56 PM 65.8 °F 59.0 °F 79% 29.92 in 10.0 mi South 10.4 mph - N/A   Clear